Location: Burland Observatory
(39.4088°N, 105.4217°W)
Time: 18:24:52
(UTC-07:00)

SR - Pass Details

Date: 10 December 2019
Orbit: 574 x 882 km, 66.7° (Epoch: 17 January)

Event Time Altitude Azimuth Distance (km) Brightness Sun altitude
Rises 11:19:05 0° 267° (W) 3,318 ? 27.1°
Reaches altitude 10° 11:22:56 10° 294° (WNW) 2,449 ? 27.2°
Maximum altitude 11:25:35 13° 322° (NW) 2,255 ? 27.3°
Drops below altitude 10° 11:28:18 10° 350° (N) 2,513 ? 27.4°
Sets 11:32:22 0° 17° (NNE) 3,479 ? 27.4°
